[Iaude] MPEC A21: 2024 AG [a=1.30,e=0.49,i=5.9,H=25.9]
    mpec at marsden.cfa.harvard.edu 
    mpec at marsden.cfa.harvard.edu
       
    Wed Jan  3 00:58:07 EST 2024
    
    
  
M.P.E.C. 2024-A21                               Issued 2024 January 3, 05:56 UT
     The Minor Planet Electronic Circulars contain information on unusual
         minor planets, routine data on comets and natural satellites,
         and occasional editorial announcements.  They are published
    on behalf of Division F of the International Astronomical Union by the
          Minor Planet Center, Smithsonian Astrophysical Observatory,
                          Cambridge, MA 02138, U.S.A.
			  
             Prepared using the Tamkin Foundation Computer Network
                              MPC at CFA.HARVARD.EDU
            URL https://www.minorplanetcenter.net/    ISSN 1523-6714
                                    2024 AG                                     
Observations:
     K24A00G*1C2024 01 01.38734008 18 00.263+32 17 22.74         19.37GVEA021G96
     K24A00G 1C2024 01 01.39349008 17 52.343+32 17 48.16               VEA021G96
     K24A00G 1C2024 01 01.39962508 17 44.239+32 18 14.62         20.14GVEA021G96
     K24A00G 1C2024 01 01.40575808 17 36.272+32 18 40.18         19.94GVEA021G96
     K24A00G KC2024 01 01.47191608 16 11.856+32 23 02.69         19.97GVEA021I52
     K24A00G KC2024 01 01.47323408 16 10.204+32 23 07.55         20.44GVEA021I52
     K24A00G KC2024 01 01.47585208 16 06.870+32 23 17.20         20.29GVEA021I52
     K24A00G KB2024 01 03.20633 07 49 26.07 +33 43 07.0          20.4 GXEA021H36
     K24A00G KB2024 01 03.21280 07 49 21.00 +33 43 20.1          20.9 GXEA021H36
     K24A00G KB2024 01 03.21926 07 49 16.08 +33 43 33.1          20.5 GXEA021H36
     K24A00G KB2024 01 03.22573 07 49 10.95 +33 43 46.5          20.5 GXEA021H36
Observer details:
G96 Mt. Lemmon Survey.  Observer K. W. Wierzchos.  Measurers E. C. Beshore, D.
    Fay, J. B. Fazekas, D. C. Fuls, A. R. Gibbs, A. D. Grauer, H. Groeller, J.
    K. Hogan, R. A. Kowalski, S. M. Larson, G. J. Leonard, D. Rankin, R. L.
    Seaman, F. C. Shelly, K. W. Wierzchos.  1.5-m reflector + 10K CCD.
H36 Sandlot Observatory, Scranton.  Observer G. Hug.  0.56-m f/4.8 reflector +
    CMO.
I52 Steward Observatory, Mt. Lemmon Station.  Observer G. J. Leonard.
    Measurers E. C. Beshore, D. Fay, J. B. Fazekas, D. C. Fuls, A. R. Gibbs,
    A. D. Grauer, H. Groeller, J. K. Hogan, R. A. Kowalski, S. M. Larson, G.
    J. Leonard, D. Rankin, R. L. Seaman, F. C. Shelly, K. W. Wierzchos.  1.0-m
    prime focus + CCD.
Orbital elements:
2024 AG                                                  Earth MOID = 0.0011 AU
Epoch 2023 Sept. 13.0 TT = JDT 2460200.5                MPC                     
M 325.65847              (2000.0)            P               Q                  
n   0.66531957     Peri.  270.47055     +0.98883769     -0.10838086             
a   1.2995186      Node    95.75393     +0.13986470     +0.91174156             
e   0.4932495      Incl.    5.89816     -0.05136034     +0.39620818             
P   1.48           H   25.96          G   0.15           U   9                  
Residuals in seconds of arc
240101 G96  0.2-  0.1+    240101 I52  0.2+  0.2+    240103 H36  0.4-  0.1-
240101 G96  1.1+  0.5-    240101 I52  0.2+  0.0     240103 H36  0.8+  0.2-
240101 G96  0.5-  0.2+    240101 I52  0.4-  0.2-    240103 H36  0.5-  0.2+
240101 G96  0.6-  0.2+    240103 H36  0.1+  0.1+
Ephemeris:
2024 AG                  a,e,i = 1.30, 0.49, 6                   q = 0.6585
Date    TT    R. A. (2000) Decl.     Delta      r    Elong.  Phase     V
2023 12 04    17 54 34.9 -34 10 09   0.2127  0.7901    20.6   154.0    31.4
...
2023 12 19    17 13 44.2 -34 01 16   0.07516 0.9108    12.6   166.4    34.1
...
2023 12 27    13 09 14.2 -07 27 28   0.01907 0.9790    75.8   103.1    21.1
...
2024 01 02    08 06 39.6 +32 55 02   0.04985 1.0302   159.8    19.2    20.5
2024 01 03    07 51 55.6 +33 36 59   0.05786 1.0387   162.9    16.2    20.7
2024 01 04    07 40 36.4 +34 03 51   0.06604 1.0472   165.0    14.0    21.0
...
2024 01 10    07 05 57.7 +34 52 19   0.1172  1.0978   166.8    11.8    22.2
...
2024 01 18    06 50 25.2 +34 42 26   0.1897  1.1638   159.9    16.9    23.6
...
2024 02 02    06 46 16.4 +33 44 25   0.3400  1.2813   146.0    25.5    25.3
A. U. Tomatic                (C) Copyright 2024 MPC           M.P.E.C. 2024-A21
    
    
More information about the Iaude
mailing list